Meath Environmental Platform

Observations for Trim Patrick St

Time AQI Temp °C Hum % Pres Pa CO μg/m³ H₂S μg/m³ NO μg/m³ NO₂ μg/m³ O₃ μg/m³ SO₂ μg/m³ PM1 μg/m³ PM2.5 μg/m³ PM10 μg/m³
Thursday 6 August 2026
01:21 2 13.8 74 38,460 0.31 2.18 3.39 12.29 42.2 0 4.57 9.87 10.86
01:20 2 13.8 74 38,460 0.3 2.93 3.44 14.9 52.3 0 8 12.03 13.24
01:19 2 13.8 73 38,460 0.32 2.7 3.41 11.88 40.27 0 7.14 12.08 13.28
01:18 2 13.8 74 38,460 0.31 3.19 3.44 13.89 54.57 0 7.14 12.07 13.28
01:17 2 13.8 74 38,460 0.31 2.49 3.39 12.69 38.45 0 7.14 12.75 14.02
01:16 2 13.8 74 38,460 0.3 3.21 3.38 16.25 55.7 0 6.29 12.06 13.27
01:15 2 13.8 73 38,460 0.31 3.01 3.37 13.51 50.4 0 7.14 12.09 13.29
01:14 2 13.8 74 38,460 0.3 2.93 3.37 12.49 39.96 0 7.14 12.06 13.27
01:13 2 13.8 74 38,460 0.3 3.42 3.34 16.56 55.78 0 6.29 10.63 11.7
01:12 2 13.8 74 38,460 0.3 3.24 3.35 13.56 52.77 0 5.43 9.2 10.12
01:11 2 13.8 73 38,460 0.29 2.75 3.5 13.63 50.89 0 7.14 11.4 12.54
01:10 2 13.8 73 38,460 0.3 2.98 3.46 13.15 46 0 6.29 10.65 11.71
01:09 2 13.8 73 38,460 0.3 3.34 3.5 16.16 56.18 0 6.29 12.09 13.29
01:08 2 13.8 73 38,460 0.3 2.93 3.46 16.14 56.99 0 5.43 10.67 11.73
01:07 2 13.8 72 38,460 0.29 1.16 3.52 10.97 35.21 0 4.57 9.29 10.22
01:06 2 13.8 72 38,460 0.29 3.34 3.43 13.58 53.97 0 5.43 10.01 11.01
01:05 2 13.7 72 38,460 0.28 2.2 3.51 12.19 43.5 0 4.57 9.29 10.22
01:04 2 13.7 73 38,460 0.27 2.85 3.49 16.14 57.74 0 5.43 9.26 10.18
01:03 2 13.8 72 38,460 0.25 2.38 3.52 13.36 50.73 0 4.57 7.88 8.67
01:02 2 13.7 73 38,460 0.25 2.49 3.51 13.89 56.08 0 3.71 7.11 7.82